星链-35524(STARLINK-35524)

导读 | 豆包AI

STARLINK-35524是美国太空探索技术公司星链星座的卫星,于2025年10月8日发射升空。它延续星链项目低轨卫星互联网部署路线,依托星链星座规模化组网优势,可为全球偏远地区、灾害应急场景以及商业海事、航空领域提供高速低延迟的宽带互联网接入服务,进一步拓展了星链系统的全球覆盖能力。

基本信息
目录编号:
65914
目录名称:
STARLINK-35524
国际标识:
2025-225E
轨道中心:
EARTH
卫星名称:
星链-35524
卫星全名:
星链-35524(STARLINK-35524)
卫星状态:
在轨 (已飞行157 天)
发射日期:
2025-10-08 UTC
国别 :
美国 (US)
星等 :
--
轨道信息
数据来源 国际轨道数据
星历时间: 2026-03-13T22:43:27+0800
18小时前
查看轨道信息
半长轴: 6853.279km
偏心率: 0.0001304
轨道倾角: 53.159°
近地点辐角 70.803°
升交点赤经 147.114°
平近点角 289.311°
近地点: 474.248km
远地点: 476.036km
周期: 94.104分钟
每日圈数: 15.302248
详细信息
固有亮度:
5
最大亮度:
2.5
卫星平台:
Starlink V1.0
覆盖范围:
全球
运营商:
太空探索技术公司
运营商所在国:
美国
制造商(研发单位):
太空探索技术公司
制造商所在国:
美国
使用方式:
暂无
卫星简介
Starlink 计划是 SpaceX 推出的全球卫星互联网项目,通过发射低轨道卫星,为全球尤其是偏远地区提供高速、低延迟的互联网服务。自 2019 年起,Starlink 已部署数千颗卫星,旨在缩小全球数字鸿沟,推动互联网普及。该项目还为军事、航空等行业提供通信支持,带来广泛经济效益。
2D轨道图
3D轨道图
轨道高度分析图
轨道倾角分析图
轨道综合分析图
查看轨道综合分析图